Radioactive Concentration measured by Seawater Radiation Monitor near Fukushima Daiichi Nuclear Power Station
Date,Time,Cs137(Bq/L),Cs134(Bq/L),Total β(Bq/L)
2017/05/11,00:00,0.67,ND,ND
2017/05/11,00:10,0.61,ND,ND
2017/05/11,00:20,0.63,ND,9.2
2017/05/11,00:30,0.64,ND,9.2
2017/05/11,00:40,0.64,ND,ND
2017/05/11,00:50,0.64,ND,9.3
2017/05/11,01:00,0.61,ND,9.3
2017/05/11,01:10,0.60,ND,ND
2017/05/11,01:20,0.62,ND,9.3
2017/05/11,01:30,0.61,ND,9.3
2017/05/11,01:40,0.59,ND,12
2017/05/11,01:50,0.61,ND,ND
2017/05/11,02:00,0.62,ND,9.0
2017/05/11,02:10,0.64,ND,ND
2017/05/11,02:20,0.65,ND,ND
2017/05/11,02:30,0.65,ND,ND
2017/05/11,02:40,0.65,ND,ND
2017/05/11,02:50,0.66,ND,ND
2017/05/11,03:00,0.67,ND,ND
2017/05/11,03:10,0.61,0.047,ND
2017/05/11,03:20,0.61,0.043,ND
2017/05/11,03:30,0.61,0.053,ND
2017/05/11,03:40,0.62,0.049,ND
2017/05/11,03:50,0.63,0.049,ND
2017/05/11,04:00,0.64,0.055,ND
2017/05/11,04:10,0.63,0.053,ND
2017/05/11,04:20,0.62,0.060,ND
2017/05/11,04:30,0.62,0.060,ND
2017/05/11,04:40,0.62,0.068,ND
2017/05/11,04:50,0.61,0.068,ND
2017/05/11,05:00,0.61,0.055,ND
2017/05/11,05:10,0.64,0.052,ND
2017/05/11,05:20,0.64,0.047,ND
2017/05/11,05:30,0.65,0.044,ND
2017/05/11,05:40,0.65,0.043,ND
2017/05/11,05:50,0.72,ND,ND
2017/05/11,06:00,0.61,0.044,ND
2017/05/11,06:10,0.57,0.061,ND
2017/05/11,06:20,0.60,0.046,ND
2017/05/11,06:30,0.59,0.040,ND
2017/05/11,06:40,0.58,0.049,ND
2017/05/11,06:50,0.59,0.038,ND
2017/05/11,07:00,0.55,0.047,ND
2017/05/11,07:10,0.57,0.034,ND
2017/05/11,07:20,0.57,0.034,ND
2017/05/11,07:30,0.57,0.031,ND
2017/05/11,07:40,0.66,ND,ND
2017/05/11,07:50,0.66,ND,ND
2017/05/11,08:00,0.57,0.035,ND
2017/05/11,08:10,0.58,0.036,ND
2017/05/11,08:20,0.58,0.041,9.6
2017/05/11,08:30,0.64,0.036,11
2017/05/11,08:40,0.66,0.030,ND
2017/05/11,08:50,0.67,0.025,10
2017/05/11,09:00,0.69,ND,9.7
2017/05/11,09:10,0.62,0.048,ND
2017/05/11,09:20,0.62,0.054,ND
2017/05/11,09:30,0.71,ND,ND
2017/05/11,09:40,0.62,0.056,10
2017/05/11,09:50,0.72,ND,11
2017/05/11,10:00,0.74,ND,13
2017/05/11,10:10,0.72,ND,12
2017/05/11,10:20,0.72,ND,11
2017/05/11,10:30,0.68,0.027,9.2
2017/05/11,10:40,0.74,ND,ND
2017/05/11,10:50,0.70,0.029,ND
2017/05/11,11:00,0.72,0.028,ND
2017/05/11,11:10,0.71,0.034,ND
2017/05/11,11:20,0.73,0.035,8.8
2017/05/11,11:30,0.72,0.039,9.3
2017/05/11,11:40,0.72,0.044,8.9
2017/05/11,11:50,0.71,0.047,9.3
2017/05/11,12:00,0.71,0.050,9.9
2017/05/11,12:10,0.74,0.048,ND
2017/05/11,12:20,0.81,ND,ND
2017/05/11,12:30,0.82,ND,ND
2017/05/11,12:40,0.72,0.064,ND
2017/05/11,12:50,0.73,0.054,ND
2017/05/11,13:00,0.72,0.052,ND
2017/05/11,13:10,0.70,0.049,ND
2017/05/11,13:20,0.70,0.037,ND
2017/05/11,13:30,0.69,0.032,ND
2017/05/11,13:40,0.74,ND,ND
2017/05/11,13:50,0.70,0.030,ND
2017/05/11,14:00,0.74,ND,ND
2017/05/11,14:10,0.70,0.032,ND
2017/05/11,14:20,0.69,0.035,ND
2017/05/11,14:30,0.67,0.036,ND
2017/05/11,14:40,0.65,0.049,ND
2017/05/11,14:50,0.66,0.040,ND
2017/05/11,15:00,0.66,0.044,ND
2017/05/11,15:10,0.67,0.053,ND
2017/05/11,15:20,0.69,0.046,ND
2017/05/11,15:30,0.71,0.042,ND
2017/05/11,15:40,0.78,ND,ND
2017/05/11,15:50,0.74,0.034,9.3
2017/05/11,16:00,0.71,0.042,ND
2017/05/11,16:10,0.71,0.040,ND
2017/05/11,16:20,0.71,0.033,ND
2017/05/11,16:30,0.71,0.040,ND
2017/05/11,16:40,0.70,0.041,ND
2017/05/11,16:50,0.69,0.067,ND
2017/05/11,17:00,0.73,0.050,ND
2017/05/11,17:10,0.74,0.051,ND
2017/05/11,17:20,0.74,0.063,ND
2017/05/11,17:30,0.74,0.066,8.8
2017/05/11,17:40,0.76,0.065,ND
2017/05/11,17:50,0.76,0.061,9.5
2017/05/11,18:00,0.77,0.063,12
2017/05/11,18:10,0.75,0.067,12
2017/05/11,18:20,0.77,0.070,12
2017/05/11,18:30,0.78,0.063,9.3
2017/05/11,18:40,0.79,0.061,9.6
2017/05/11,18:50,0.78,0.058,12
2017/05/11,19:00,0.75,0.062,11
2017/05/11,19:10,0.75,0.057,10
2017/05/11,19:20,0.72,0.056,8.8
2017/05/11,19:30,0.73,0.049,ND
2017/05/11,19:40,0.70,0.057,ND
2017/05/11,19:50,0.72,0.052,ND
2017/05/11,20:00,0.74,0.059,ND
2017/05/11,20:10,0.75,0.062,ND
2017/05/11,20:20,0.79,0.034,ND
2017/05/11,20:30,0.73,0.077,ND
2017/05/11,20:40,0.74,0.070,ND
2017/05/11,20:50,0.72,0.075,ND
2017/05/11,21:00,0.71,0.070,ND
2017/05/11,21:10,0.71,0.066,ND
2017/05/11,21:20,0.73,0.065,ND
2017/05/11,21:30,0.74,0.062,ND
2017/05/11,21:40,0.78,0.027,ND
2017/05/11,21:50,0.70,0.043,ND
2017/05/11,22:00,0.71,0.047,ND
2017/05/11,22:10,0.83,ND,ND
2017/05/11,22:20,0.72,0.053,ND
2017/05/11,22:30,0.79,ND,ND
2017/05/11,22:40,0.80,ND,ND
2017/05/11,22:50,0.70,0.054,ND
2017/05/11,23:00,0.70,0.050,ND
2017/05/11,23:10,0.70,0.057,ND
2017/05/11,23:20,0.79,ND,ND
2017/05/11,23:30,0.80,ND,ND
2017/05/11,23:40,0.69,0.055,ND
2017/05/11,23:50,0.74,0.028,ND
